Precipitable_Water
1.97 2.01 2.09 2.13 2.15 2.22 2.21 2.19 2.19 2.17 2.12 2.08 2.03 2.02 2.01 2.00 1.98 1.97 1.98 2.00 2.00 1.99 1.96 1.97 1.98 1.99 2.00 1.99 1.97 1.96 1.95 1.95 1.91 1.88 1.87 1.88 1.89 1.90 1.88 1.85 1.81 1.81 1.79 1.80 1.85 1.86 1.81 1.78 1.80 1.82 1.84 1.86 1.92 1.97 1.92 1.86 1.85 1.81 1.79 1.79 1.77 1.78 1.78 1.73 1.72 1.70 1.70 1.66 1.64 1.65 1.68 1.72 1.75 1.73 1.73 1.74 1.76 1.75 1.71 1.65 1.61 1.62 1.61 1.61 1.61
1.90 2.06 2.12 2.13 2.15 2.17 2.19 2.20 2.16 2.14 2.09 2.06 2.03 2.02 2.00 1.98 1.96 1.96 1.96 1.94 1.93 1.95 1.98 1.99 2.00 2.00 2.00 2.00 1.99 1.97 1.94 1.93 1.91 1.91 1.92 1.92 1.90 1.90 1.91 1.90 1.85 1.78 1.75 1.80 1.88 1.89 1.83 1.80 1.78 1.80 1.85 1.87 1.90 1.96 1.88 1.84 1.87 1.86 1.80 1.75 1.77 1.77 1.77 1.78 1.80 1.79 1.77 1.79 1.76 1.68 1.67 1.68 1.72 1.77 1.75 1.73 1.73 1.74 1.75 1.66 1.62 1.64 1.65 1.66 1.65
1.95 2.05 2.12 2.12 2.14 2.13 2.12 2.11 2.11 2.08 2.04 2.04 2.05 2.05 2.03 1.99 1.96 1.93 1.90 1.90 1.90 1.86 1.93 1.97 1.98 2.02 2.03 1.98 1.94 1.90 1.88 1.85 1.82 1.84 1.88 1.90 1.91 1.92 1.90 1.89 1.86 1.78 1.73 1.78 1.85 1.86 1.86 1.84 1.82 1.84 1.87 1.87 1.87 1.89 1.87 1.85 1.84 1.83 1.83 1.80 1.82 1.77 1.77 1.78 1.79 1.80 1.81 1.83 1.79 1.75 1.75 1.68 1.63 1.65 1.68 1.68 1.63 1.62 1.59 1.58 1.58 1.63 1.65 1.64 1.62
1.83 1.97 2.09 2.11 2.12 2.11 2.08 2.03 2.03 2.02 2.02 2.04 2.04 2.02 1.99 1.96 1.94 1.92 1.92 1.95 1.91 1.84 1.82 1.89 1.96 1.99 2.02 2.00 1.94 1.88 1.85 1.81 1.78 1.78 1.82 1.86 1.88 1.89 1.88 1.85 1.83 1.81 1.78 1.74 1.74 1.80 1.87 1.90 1.89 1.89 1.88 1.86 1.84 1.84 1.84 1.87 1.87 1.86 1.81 1.83 1.80 1.82 1.83 1.83 1.80 1.77 1.76 1.78 1.77 1.75 1.76 1.77 1.69 1.60 1.56 1.52 1.44 1.42 1.44 1.47 1.50 1.54 1.55 1.55 1.56
1.80 1.89 1.97 2.03 2.04 2.05 2.05 2.01 1.99 2.01 2.03 2.03 1.99 1.96 1.94 1.92 1.90 1.91 1.94 1.94 1.91 1.87 1.84 1.86 1.92 1.96 1.97 1.97 1.91 1.83 1.83 1.80 1.79 1.79 1.78 1.81 1.85 1.86 1.86 1.84 1.84 1.86 1.81 1.74 1.71 1.78 1.85 1.89 1.91 1.90 1.87 1.87 1.89 1.90 1.89 1.88 1.91 1.87 1.85 1.85 1.84 1.84 1.83 1.81 1.75 1.68 1.66 1.68 1.70 1.66 1.69 1.72 1.71 1.71 1.60 1.54 1.51 1.47 1.48 1.49 1.49 1.51 1.52 1.55 1.56
1.75 1.83 1.88 1.91 1.94 1.95 1.97 1.98 1.96 1.96 1.98 1.95 1.93 1.91 1.89 1.87 1.88 1.90 1.92 1.94 1.94 1.91 1.87 1.85 1.89 1.93 1.96 1.92 1.87 1.85 1.80 1.75 1.75 1.76 1.77 1.76 1.80 1.84 1.84 1.84 1.86 1.88 1.86 1.84 1.79 1.78 1.82 1.87 1.86 1.86 1.85 1.86 1.88 1.88 1.88 1.87 1.88 1.89 1.87 1.85 1.85 1.80 1.77 1.75 1.65 1.50 1.43 1.44 1.48 1.53 1.58 1.61 1.63 1.64 1.58 1.52 1.47 1.45 1.46 1.48 1.46 1.47 1.46 1.47 1.49
1.70 1.78 1.80 1.83 1.85 1.86 1.88 1.91 1.90 1.88 1.88 1.88 1.88 1.87 1.83 1.86 1.92 1.92 1.92 1.93 1.95 1.93 1.86 1.83 1.89 1.96 1.96 1.91 1.87 1.87 1.81 1.76 1.73 1.73 1.74 1.74 1.76 1.78 1.81 1.85 1.87 1.90 1.87 1.84 1.81 1.80 1.81 1.83 1.85 1.85 1.86 1.85 1.85 1.85 1.83 1.84 1.87 1.88 1.86 1.83 1.81 1.78 1.74 1.71 1.62 1.41 1.26 1.20 1.20 1.25 1.33 1.39 1.44 1.44 1.43 1.39 1.37 1.39 1.42 1.43 1.43 1.42 1.41 1.42 1.41
1.71 1.76 1.78 1.80 1.79 1.81 1.81 1.83 1.83 1.82 1.82 1.84 1.85 1.85 1.87 1.92 1.94 1.92 1.91 1.92 1.91 1.89 1.86 1.85 1.94 2.01 1.99 1.93 1.90 1.89 1.83 1.75 1.74 1.76 1.75 1.73 1.73 1.76 1.80 1.87 1.89 1.89 1.89 1.86 1.81 1.79 1.79 1.81 1.83 1.85 1.85 1.84 1.82 1.80 1.80 1.83 1.85 1.84 1.82 1.78 1.74 1.70 1.79 1.69 1.59 1.43 1.27 1.14 1.11 1.12 1.14 1.16 1.15 1.14 1.16 1.16 1.17 1.21 1.25 1.25 1.21 1.20 1.24 1.28 1.31
1.66 1.74 1.76 1.76 1.76 1.76 1.79 1.79 1.80 1.80 1.81 1.83 1.84 1.85 1.88 1.92 1.96 1.96 1.92 1.91 1.91 1.88 1.86 1.90 1.99 2.06 2.02 1.92 1.89 1.87 1.83 1.81 1.82 1.81 1.78 1.76 1.74 1.76 1.81 1.88 1.90 1.91 1.89 1.84 1.80 1.80 1.79 1.80 1.83 1.84 1.82 1.79 1.76 1.75 1.74 1.76 1.78 1.82 1.86 1.77 1.69 1.65 1.81 1.76 1.52 1.45 1.34 1.24 1.15 1.12 1.10 1.11 1.12 1.14 1.20 1.23 1.25 1.25 1.26 1.29 1.30 1.25 1.20 1.19 1.19
1.65 1.72 1.75 1.71 1.72 1.76 1.78 1.81 1.80 1.79 1.82 1.84 1.82 1.82 1.86 1.93 1.98 1.95 1.92 1.91 1.90 1.88 1.87 1.91 1.95 1.99 2.01 1.95 1.91 1.88 1.84 1.82 1.79 1.77 1.76 1.78 1.78 1.80 1.86 1.90 1.90 1.89 1.89 1.87 1.83 1.81 1.80 1.80 1.83 1.84 1.80 1.73 1.66 1.63 1.62 1.62 1.64 1.65 1.69 1.69 1.70 1.68 1.68 1.64 1.53 1.44 1.35 1.28 1.20 1.17 1.18 1.20 1.23 1.26 1.30 1.32 1.34 1.33 1.40 1.42 1.44 1.39 1.29 1.27 1.27
1.61 1.65 1.70 1.70 1.72 1.76 1.78 1.80 1.82 1.84 1.84 1.84 1.83 1.84 1.87 1.93 2.02 1.99 1.95 1.89 1.88 1.90 1.90 1.91 1.93 1.97 2.02 1.99 1.95 1.90 1.84 1.81 1.79 1.77 1.78 1.81 1.81 1.81 1.83 1.87 1.88 1.88 1.87 1.88 1.87 1.83 1.82 1.81 1.81 1.79 1.73 1.62 1.51 1.46 1.42 1.41 1.45 1.57 1.67 1.68 1.64 1.57 1.49 1.51 1.47 1.37 1.35 1.33 1.27 1.25 1.26 1.30 1.35 1.46 1.52 1.53 1.51 1.47 1.43 1.44 1.47 1.46 1.45 1.44 1.44
1.53 1.60 1.63 1.69 1.76 1.77 1.79 1.81 1.86 1.87 1.85 1.85 1.86 1.87 1.87 1.91 1.96 1.96 1.94 1.94 1.93 1.93 1.91 1.93 1.95 1.97 2.00 2.01 1.95 1.89 1.85 1.82 1.82 1.82 1.80 1.81 1.80 1.80 1.80 1.81 1.82 1.84 1.86 1.87 1.88 1.86 1.82 1.81 1.76 1.68 1.56 1.44 1.34 1.27 1.23 1.30 1.44 1.56 1.56 1.55 1.56 1.52 1.60 1.58 1.42 1.37 1.38 1.36 1.29 1.26 1.24 1.29 1.37 1.46 1.53 1.54 1.51 1.55 1.57 1.55 1.54 1.52 1.51 1.50 1.49
1.49 1.55 1.61 1.68 1.75 1.78 1.82 1.84 1.85 1.79 1.81 1.86 1.87 1.91 1.90 1.89 1.92 1.95 1.96 1.98 1.97 1.95 1.93 1.92 1.93 1.94 1.97 1.97 1.94 1.88 1.85 1.82 1.83 1.85 1.85 1.83 1.82 1.81 1.80 1.81 1.81 1.81 1.82 1.85 1.85 1.79 1.71 1.64 1.52 1.39 1.31 1.25 1.20 1.18 1.24 1.40 1.51 1.49 1.49 1.50 1.52 1.54 1.66 1.48 1.41 1.42 1.42 1.42 1.35 1.27 1.26 1.26 1.30 1.35 1.40 1.43 1.44 1.44 1.44 1.42 1.42 1.42 1.43 1.44 1.44
1.48 1.53 1.62 1.71 1.74 1.81 1.82 1.83 1.82 1.83 1.85 1.86 1.86 1.86 1.90 1.91 1.91 1.95 1.95 1.97 1.98 1.97 1.95 1.93 1.95 1.98 1.97 1.95 1.91 1.86 1.82 1.82 1.82 1.86 1.89 1.86 1.84 1.84 1.83 1.82 1.81 1.80 1.79 1.74 1.67 1.61 1.53 1.44 1.30 1.16 1.07 1.06 1.12 1.21 1.32 1.41 1.47 1.51 1.47 1.47 1.47 1.51 1.58 1.48 1.47 1.46 1.45 1.42 1.37 1.31 1.26 1.25 1.26 1.30 1.32 1.35 1.35 1.35 1.36 1.38 1.38 1.36 1.35 1.34 1.36
1.60 1.64 1.72 1.79 1.87 1.89 1.89 1.88 1.90 1.90 1.91 1.94 1.98 1.93 1.93 1.94 1.94 1.94 1.95 1.96 1.97 1.98 1.99 2.01 2.03 2.02 1.97 1.91 1.83 1.80 1.80 1.80 1.81 1.85 1.89 1.87 1.82 1.82 1.84 1.83 1.81 1.80 1.79 1.77 1.71 1.60 1.46 1.32 1.21 1.12 1.08 1.11 1.15 1.21 1.32 1.44 1.50 1.48 1.45 1.47 1.50 1.55 1.57 1.49 1.45 1.46 1.42 1.42 1.38 1.36 1.29 1.27 1.24 1.23 1.26 1.28 1.29 1.29 1.28 1.30 1.28 1.28 1.32 1.33 1.32
1.78 1.76 1.82 1.85 1.91 1.91 1.94 1.96 1.97 1.96 1.95 1.97 1.99 1.98 1.97 1.98 1.99 1.98 1.96 1.99 1.98 1.98 1.98 2.00 2.06 2.04 1.97 1.88 1.84 1.81 1.82 1.81 1.81 1.82 1.86 1.86 1.82 1.80 1.79 1.79 1.79 1.77 1.75 1.74 1.65 1.46 1.30 1.19 1.12 1.09 1.13 1.18 1.22 1.27 1.36 1.48 1.52 1.49 1.47 1.45 1.48 1.52 1.55 1.53 1.41 1.43 1.42 1.40 1.37 1.35 1.27 1.25 1.22 1.22 1.23 1.23 1.25 1.25 1.27 1.27 1.27 1.25 1.26 1.26 1.27
1.86 1.87 1.85 1.87 1.90 1.95 1.96 2.02 1.97 1.98 1.97 1.99 2.00 2.00 2.00 2.00 2.03 2.02 2.02 2.00 1.97 1.96 1.97 1.99 2.00 2.00 1.95 1.89 1.87 1.85 1.82 1.80 1.77 1.78 1.80 1.83 1.81 1.78 1.76 1.77 1.77 1.74 1.68 1.58 1.41 1.32 1.24 1.18 1.19 1.21 1.22 1.22 1.26 1.32 1.34 1.40 1.44 1.43 1.44 1.47 1.49 1.51 1.58 1.51 1.42 1.42 1.41 1.37 1.35 1.30 1.27 1.24 1.21 1.22 1.23 1.23 1.21 1.21 1.22 1.23 1.21 1.24 1.24 1.24 1.22
1.87 1.89 1.85 1.86 1.90 1.95 1.97 2.00 1.99 1.99 2.00 2.06 2.07 2.03 2.00 2.02 2.04 2.04 2.03 1.99 1.97 1.97 1.96 1.95 1.96 1.95 1.92 1.89 1.87 1.84 1.81 1.80 1.78 1.77 1.78 1.78 1.76 1.75 1.76 1.76 1.71 1.61 1.46 1.35 1.31 1.27 1.26 1.28 1.29 1.28 1.29 1.31 1.31 1.32 1.34 1.40 1.45 1.45 1.49 1.52 1.51 1.55 1.61 1.53 1.37 1.40 1.38 1.34 1.31 1.26 1.24 1.19 1.21 1.22 1.24 1.21 1.19 1.20 1.23 1.26 1.24 1.23 1.23 1.27 1.30
1.85 1.85 1.85 1.85 1.88 1.92 1.96 1.98 1.98 1.98 2.02 2.07 2.07 2.07 2.02 2.05 2.08 2.06 2.00 1.97 1.97 1.98 1.95 1.92 1.91 1.88 1.88 1.87 1.85 1.81 1.79 1.77 1.75 1.73 1.72 1.71 1.71 1.71 1.69 1.65 1.54 1.41 1.33 1.29 1.29 1.31 1.33 1.35 1.38 1.40 1.41 1.42 1.40 1.45 1.49 1.49 1.48 1.51 1.54 1.55 1.56 1.53 1.59 1.50 1.37 1.39 1.38 1.36 1.30 1.21 1.16 1.19 1.22 1.24 1.23 1.21 1.24 1.26 1.27 1.27 1.25 1.26 1.29 1.30 1.32
1.79 1.80 1.81 1.87 1.89 1.92 1.97 1.99 1.98 1.98 2.01 2.02 2.03 2.03 2.03 2.05 2.05 2.02 1.98 1.97 1.98 1.98 1.94 1.90 1.87 1.83 1.84 1.84 1.83 1.81 1.79 1.74 1.70 1.67 1.67 1.67 1.64 1.59 1.59 1.53 1.41 1.32 1.29 1.32 1.36 1.39 1.42 1.45 1.49 1.51 1.51 1.52 1.55 1.55 1.53 1.54 1.55 1.56 1.58 1.59 1.56 1.60 1.57 1.50 1.39 1.37 1.40 1.38 1.28 1.17 1.15 1.19 1.20 1.20 1.21 1.24 1.24 1.26 1.31 1.33 1.31 1.32 1.32 1.30 1.32
1.74 1.77 1.83 1.86 1.89 1.96 1.95 1.95 1.95 1.98 1.99 2.00 2.00 1.99 2.02 2.01 2.02 1.99 1.99 1.99 1.98 1.94 1.90 1.89 1.88 1.89 1.87 1.84 1.81 1.77 1.74 1.73 1.67 1.63 1.64 1.60 1.54 1.51 1.49 1.41 1.34 1.32 1.39 1.47 1.51 1.52 1.51 1.50 1.50 1.50 1.50 1.51 1.54 1.56 1.55 1.56 1.58 1.59 1.60 1.60 1.61 1.60 1.59 1.54 1.46 1.40 1.39 1.37 1.22 1.14 1.17 1.18 1.19 1.19 1.21 1.23 1.27 1.34 1.35 1.36 1.35 1.35 1.33 1.32 1.32
1.65 1.71 1.84 1.87 1.87 1.91 1.92 1.94 1.95 1.97 1.97 1.97 1.96 1.96 1.98 1.98 1.97 1.99 1.98 1.98 1.92 1.87 1.89 1.91 1.91 1.90 1.87 1.81 1.74 1.71 1.68 1.65 1.61 1.60 1.55 1.48 1.46 1.42 1.37 1.32 1.32 1.38 1.46 1.51 1.53 1.54 1.55 1.55 1.55 1.55 1.55 1.55 1.54 1.52 1.50 1.51 1.52 1.54 1.56 1.58 1.58 1.58 1.60 1.56 1.45 1.38 1.37 1.27 1.16 1.15 1.18 1.18 1.20 1.22 1.23 1.28 1.34 1.35 1.36 1.37 1.38 1.37 1.36 1.35 1.32
1.63 1.69 1.76 1.83 1.87 1.90 1.91 1.91 1.94 1.94 1.92 1.92 1.93 1.94 1.92 1.93 1.94 1.95 1.94 1.91 1.89 1.86 1.88 1.91 1.88 1.85 1.78 1.71 1.68 1.64 1.60 1.56 1.53 1.48 1.41 1.39 1.37 1.33 1.28 1.29 1.35 1.41 1.44 1.46 1.46 1.48 1.52 1.56 1.58 1.59 1.60 1.62 1.60 1.54 1.52 1.50 1.49 1.51 1.52 1.51 1.51 1.53 1.56 1.54 1.42 1.33 1.29 1.18 1.15 1.16 1.19 1.22 1.24 1.26 1.28 1.32 1.33 1.35 1.36 1.37 1.39 1.40 1.42 1.41 1.41
1.60 1.64 1.68 1.81 1.89 1.88 1.88 1.89 1.89 1.89 1.87 1.87 1.90 1.90 1.88 1.91 1.91 1.89 1.89 1.87 1.83 1.80 1.83 1.81 1.75 1.66 1.60 1.62 1.62 1.60 1.54 1.46 1.42 1.36 1.32 1.32 1.27 1.25 1.25 1.33 1.39 1.44 1.48 1.50 1.50 1.53 1.57 1.60 1.62 1.65 1.66 1.63 1.58 1.56 1.53 1.50 1.49 1.49 1.51 1.51 1.49 1.48 1.45 1.41 1.34 1.29 1.19 1.17 1.18 1.21 1.23 1.24 1.26 1.28 1.30 1.31 1.32 1.35 1.39 1.43 1.44 1.46 1.48 1.48 1.48
1.61 1.64 1.70 1.74 1.83 1.84 1.83 1.84 1.87 1.86 1.85 1.85 1.83 1.82 1.85 1.87 1.86 1.84 1.82 1.78 1.71 1.69 1.65 1.55 1.46 1.41 1.41 1.48 1.53 1.51 1.43 1.36 1.31 1.29 1.25 1.21 1.16 1.19 1.27 1.34 1.41 1.42 1.47 1.47 1.49 1.51 1.55 1.55 1.58 1.60 1.60 1.60 1.57 1.55 1.54 1.49 1.46 1.46 1.46 1.46 1.45 1.43 1.34 1.34 1.28 1.14 1.13 1.19 1.20 1.22 1.24 1.26 1.28 1.30 1.32 1.33 1.35 1.39 1.44 1.47 1.48 1.48 1.51 1.52 1.54
1.60 1.55 1.61 1.70 1.76 1.79 1.79 1.79 1.81 1.83 1.84 1.81 1.78 1.80 1.81 1.76 1.75 1.76 1.72 1.68 1.64 1.56 1.47 1.38 1.34 1.34 1.36 1.40 1.43 1.36 1.29 1.24 1.21 1.21 1.19 1.17 1.13 1.18 1.26 1.33 1.35 1.37 1.44 1.43 1.47 1.51 1.51 1.54 1.57 1.59 1.60 1.59 1.56 1.53 1.52 1.49 1.44 1.43 1.43 1.42 1.39 1.34 1.31 1.27 1.16 1.09 1.13 1.16 1.18 1.22 1.26 1.28 1.31 1.34 1.36 1.38 1.40 1.43 1.48 1.52 1.53 1.54 1.57 1.60 1.62
1.52 1.52 1.59 1.65 1.71 1.74 1.78 1.79 1.76 1.80 1.81 1.82 1.81 1.78 1.74 1.73 1.70 1.69 1.63 1.60 1.57 1.45 1.39 1.38 1.35 1.34 1.32 1.32 1.25 1.18 1.15 1.12 1.12 1.13 1.08 1.12 1.13 1.19 1.24 1.32 1.34 1.37 1.44 1.44 1.44 1.48 1.52 1.56 1.59 1.60 1.61 1.59 1.56 1.54 1.52 1.50 1.47 1.43 1.40 1.37 1.34 1.31 1.28 1.22 1.07 1.02 1.09 1.15 1.21 1.25 1.29 1.33 1.36 1.39 1.41 1.42 1.43 1.46 1.50 1.56 1.58 1.61 1.64 1.67 1.67
1.50 1.49 1.54 1.59 1.63 1.66 1.73 1.75 1.74 1.77 1.78 1.81 1.77 1.72 1.71 1.67 1.65 1.66 1.62 1.55 1.49 1.43 1.39 1.34 1.29 1.25 1.23 1.20 1.18 1.13 1.09 1.08 1.09 1.08 1.09 1.16 1.21 1.29 1.35 1.38 1.43 1.48 1.55 1.55 1.52 1.55 1.56 1.59 1.60 1.60 1.58 1.56 1.52 1.49 1.48 1.46 1.43 1.42 1.36 1.34 1.31 1.27 1.23 1.16 1.03 1.04 1.12 1.18 1.25 1.31 1.33 1.36 1.38 1.40 1.41 1.43 1.43 1.47 1.52 1.57 1.61 1.64 1.66 1.68 1.69
1.43 1.48 1.53 1.55 1.57 1.62 1.68 1.70 1.72 1.74 1.75 1.78 1.69 1.67 1.66 1.64 1.64 1.61 1.55 1.56 1.49 1.44 1.39 1.36 1.30 1.25 1.25 1.25 1.27 1.24 1.25 1.21 1.15 1.15 1.21 1.27 1.35 1.40 1.44 1.46 1.50 1.53 1.57 1.56 1.56 1.54 1.55 1.58 1.57 1.55 1.54 1.52 1.50 1.46 1.45 1.40 1.37 1.36 1.35 1.33 1.30 1.23 1.15 1.08 1.10 1.10 1.17 1.23 1.28 1.32 1.34 1.35 1.37 1.40 1.41 1.42 1.46 1.49 1.54 1.58 1.61 1.63 1.65 1.67 1.69
1.43 1.48 1.51 1.53 1.58 1.62 1.64 1.66 1.68 1.69 1.71 1.71 1.64 1.60 1.61 1.59 1.59 1.59 1.58 1.58 1.50 1.48 1.48 1.44 1.40 1.37 1.36 1.38 1.39 1.38 1.32 1.26 1.22 1.27 1.33 1.36 1.43 1.47 1.48 1.47 1.47 1.52 1.55 1.51 1.55 1.56 1.54 1.54 1.55 1.52 1.50 1.48 1.43 1.41 1.43 1.37 1.34 1.30 1.32 1.31 1.24 1.18 1.13 1.11 1.14 1.17 1.22 1.25 1.27 1.30 1.34 1.34 1.36 1.37 1.38 1.43 1.48 1.52 1.56 1.59 1.61 1.63 1.64 1.66 1.68
1.47 1.44 1.50 1.53 1.60 1.62 1.61 1.64 1.64 1.65 1.67 1.62 1.60 1.58 1.61 1.57 1.58 1.62 1.64 1.62 1.59 1.56 1.50 1.47 1.46 1.51 1.56 1.54 1.51 1.49 1.41 1.39 1.36 1.39 1.44 1.45 1.45 1.46 1.45 1.49 1.50 1.53 1.56 1.56 1.63 1.59 1.59 1.57 1.55 1.52 1.48 1.46 1.44 1.41 1.39 1.36 1.35 1.33 1.28 1.20 1.17 1.19 1.16 1.17 1.20 1.23 1.23 1.25 1.27 1.29 1.32 1.34 1.34 1.37 1.38 1.44 1.48 1.52 1.55 1.57 1.59 1.61 1.62 1.65 1.67
1.42 1.41 1.48 1.55 1.58 1.59 1.59 1.61 1.59 1.60 1.59 1.57 1.58 1.55 1.56 1.57 1.60 1.64 1.63 1.62 1.59 1.51 1.48 1.50 1.53 1.58 1.64 1.60 1.55 1.52 1.49 1.48 1.47 1.49 1.51 1.51 1.49 1.50 1.50 1.49 1.50 1.55 1.59 1.61 1.68 1.68 1.63 1.59 1.58 1.53 1.49 1.45 1.41 1.42 1.38 1.35 1.34 1.33 1.29 1.18 1.18 1.20 1.19 1.19 1.20 1.21 1.22 1.24 1.27 1.30 1.31 1.36 1.41 1.41 1.40 1.44 1.47 1.50 1.53 1.56 1.59 1.60 1.61 1.64 1.67
1.45 1.45 1.45 1.51 1.53 1.57 1.56 1.57 1.57 1.56 1.54 1.53 1.53 1.54 1.56 1.59 1.61 1.59 1.59 1.59 1.58 1.56 1.56 1.59 1.57 1.60 1.68 1.67 1.60 1.55 1.57 1.55 1.54 1.58 1.62 1.59 1.56 1.54 1.53 1.55 1.58 1.63 1.66 1.70 1.69 1.66 1.62 1.56 1.51 1.53 1.46 1.43 1.38 1.35 1.36 1.33 1.31 1.31 1.29 1.26 1.23 1.18 1.22 1.22 1.22 1.29 1.29 1.28 1.29 1.33 1.37 1.41 1.43 1.44 1.45 1.46 1.49 1.52 1.56 1.58 1.60 1.62 1.64 1.64 1.65
1.44 1.46 1.44 1.46 1.54 1.59 1.61 1.58 1.56 1.52 1.53 1.55 1.55 1.54 1.56 1.59 1.61 1.58 1.59 1.59 1.60 1.58 1.58 1.62 1.65 1.65 1.66 1.65 1.61 1.58 1.62 1.66 1.65 1.66 1.67 1.61 1.58 1.58 1.60 1.62 1.65 1.68 1.74 1.73 1.63 1.63 1.57 1.53 1.50 1.45 1.41 1.41 1.35 1.30 1.29 1.25 1.27 1.30 1.30 1.29 1.29 1.25 1.23 1.22 1.22 1.26 1.28 1.26 1.28 1.33 1.38 1.41 1.44 1.46 1.49 1.51 1.50 1.53 1.58 1.61 1.63 1.64 1.65 1.66 1.66
1.48 1.44 1.40 1.43 1.50 1.53 1.58 1.55 1.55 1.54 1.58 1.59 1.57 1.55 1.59 1.61 1.60 1.59 1.59 1.59 1.58 1.57 1.56 1.66 1.68 1.63 1.63 1.63 1.63 1.64 1.67 1.69 1.71 1.70 1.67 1.63 1.59 1.58 1.61 1.64 1.66 1.68 1.69 1.68 1.61 1.60 1.57 1.52 1.49 1.41 1.38 1.36 1.34 1.30 1.26 1.24 1.23 1.24 1.26 1.28 1.28 1.30 1.27 1.22 1.23 1.24 1.27 1.28 1.28 1.31 1.37 1.40 1.43 1.47 1.49 1.49 1.52 1.55 1.55 1.57 1.60 1.65 1.67 1.68 1.68
1.49 1.46 1.45 1.47 1.47 1.51 1.56 1.50 1.51 1.52 1.57 1.58 1.59 1.59 1.58 1.58 1.61 1.61 1.59 1.57 1.55 1.53 1.61 1.65 1.61 1.63 1.63 1.62 1.67 1.69 1.71 1.72 1.72 1.72 1.67 1.66 1.62 1.58 1.59 1.65 1.67 1.67 1.64 1.62 1.61 1.55 1.52 1.50 1.49 1.46 1.34 1.33 1.34 1.26 1.27 1.23 1.24 1.24 1.25 1.26 1.28 1.32 1.30 1.27 1.21 1.21 1.25 1.29 1.29 1.29 1.32 1.36 1.40 1.45 1.48 1.50 1.51 1.54 1.56 1.57 1.58 1.61 1.66 1.68 1.70
1.53 1.48 1.46 1.47 1.46 1.49 1.52 1.46 1.44 1.49 1.53 1.56 1.58 1.56 1.55 1.56 1.59 1.59 1.53 1.48 1.47 1.49 1.59 1.58 1.58 1.61 1.64 1.63 1.67 1.73 1.73 1.73 1.75 1.74 1.68 1.65 1.62 1.61 1.62 1.63 1.66 1.63 1.58 1.56 1.52 1.51 1.50 1.48 1.46 1.47 1.44 1.36 1.34 1.27 1.25 1.24 1.21 1.23 1.24 1.24 1.24 1.27 1.27 1.26 1.22 1.20 1.25 1.27 1.29 1.30 1.32 1.33 1.38 1.43 1.48 1.53 1.54 1.55 1.57 1.58 1.61 1.63 1.65 1.67 1.68
1.56 1.51 1.50 1.49 1.45 1.49 1.48 1.46 1.46 1.51 1.53 1.52 1.53 1.51 1.52 1.54 1.54 1.50 1.42 1.35 1.37 1.45 1.49 1.54 1.54 1.56 1.60 1.63 1.69 1.75 1.78 1.73 1.75 1.73 1.68 1.67 1.65 1.63 1.61 1.62 1.60 1.56 1.52 1.50 1.48 1.52 1.52 1.50 1.42 1.46 1.47 1.40 1.32 1.27 1.22 1.20 1.22 1.22 1.20 1.21 1.19 1.21 1.22 1.23 1.24 1.24 1.22 1.23 1.24 1.25 1.29 1.33 1.36 1.40 1.46 1.51 1.56 1.59 1.59 1.59 1.62 1.65 1.67 1.67 1.68
1.56 1.52 1.51 1.53 1.51 1.50 1.51 1.48 1.46 1.48 1.49 1.48 1.47 1.47 1.49 1.50 1.47 1.40 1.32 1.31 1.37 1.41 1.41 1.42 1.49 1.55 1.55 1.61 1.67 1.77 1.81 1.76 1.73 1.72 1.68 1.65 1.63 1.61 1.55 1.59 1.61 1.57 1.51 1.48 1.49 1.52 1.53 1.54 1.49 1.46 1.50 1.47 1.39 1.33 1.30 1.25 1.21 1.21 1.15 1.15 1.15 1.16 1.21 1.23 1.25 1.25 1.22 1.23 1.24 1.26 1.29 1.29 1.34 1.40 1.43 1.50 1.54 1.54 1.55 1.57 1.61 1.64 1.67 1.68 1.69
1.55 1.53 1.50 1.48 1.48 1.51 1.52 1.48 1.44 1.44 1.43 1.40 1.41 1.40 1.41 1.38 1.32 1.33 1.30 1.34 1.39 1.40 1.44 1.46 1.50 1.52 1.56 1.59 1.67 1.77 1.80 1.77 1.74 1.73 1.70 1.66 1.61 1.56 1.57 1.65 1.66 1.61 1.50 1.46 1.46 1.50 1.49 1.48 1.49 1.49 1.46 1.46 1.48 1.40 1.38 1.29 1.26 1.21 1.15 1.16 1.18 1.19 1.15 1.22 1.20 1.23 1.29 1.34 1.37 1.40 1.37 1.43 1.44 1.46 1.53 1.56 1.60 1.60 1.57 1.62 1.69 1.70 1.70 1.71 1.71
1.54 1.49 1.43 1.40 1.42 1.42 1.43 1.35 1.39 1.41 1.36 1.30 1.30 1.31 1.27 1.28 1.31 1.28 1.26 1.33 1.38 1.48 1.51 1.55 1.57 1.54 1.54 1.59 1.63 1.71 1.75 1.76 1.75 1.73 1.67 1.66 1.62 1.60 1.58 1.60 1.66 1.65 1.55 1.50 1.52 1.50 1.56 1.55 1.50 1.54 1.48 1.40 1.41 1.48 1.46 1.44 1.29 1.15 1.14 1.14 1.19 1.25 1.26 1.27 1.27 1.28 1.33 1.38 1.43 1.43 1.47 1.49 1.52 1.56 1.59 1.58 1.59 1.63 1.65 1.68 1.70 1.73 1.75 1.76 1.76
1.45 1.44 1.37 1.34 1.36 1.40 1.35 1.32 1.35 1.36 1.36 1.31 1.29 1.32 1.34 1.32 1.29 1.31 1.39 1.44 1.47 1.47 1.48 1.57 1.57 1.58 1.57 1.61 1.63 1.66 1.74 1.78 1.80 1.77 1.72 1.66 1.59 1.57 1.56 1.54 1.62 1.64 1.61 1.57 1.56 1.57 1.51 1.48 1.48 1.43 1.52 1.44 1.40 1.48 1.48 1.39 1.24 1.14 1.05 1.06 1.16 1.25 1.30 1.30 1.37 1.41 1.42 1.45 1.49 1.50 1.53 1.56 1.56 1.56 1.56 1.56 1.58 1.67 1.71 1.74 1.74 1.70 1.71 1.73 1.76
1.43 1.38 1.38 1.35 1.32 1.32 1.32 1.28 1.30 1.30 1.33 1.32 1.29 1.31 1.39 1.45 1.44 1.46 1.52 1.53 1.65 1.66 1.61 1.61 1.62 1.56 1.57 1.61 1.62 1.63 1.68 1.77 1.85 1.83 1.75 1.69 1.63 1.58 1.55 1.54 1.55 1.58 1.52 1.47 1.48 1.49 1.48 1.42 1.40 1.36 1.35 1.43 1.43 1.49 1.49 1.40 1.26 1.29 1.28 1.14 1.10 1.08 1.26 1.26 1.40 1.48 1.48 1.51 1.54 1.50 1.54 1.51 1.52 1.53 1.56 1.56 1.61 1.69 1.75 1.79 1.75 1.71 1.73 1.75 1.76
1.41 1.36 1.35 1.31 1.31 1.30 1.28 1.24 1.24 1.26 1.29 1.30 1.29 1.38 1.46 1.54 1.56 1.58 1.64 1.61 1.56 1.68 1.67 1.66 1.61 1.55 1.52 1.61 1.62 1.61 1.62 1.70 1.81 1.80 1.75 1.72 1.64 1.57 1.53 1.49 1.48 1.54 1.48 1.40 1.39 1.40 1.40 1.37 1.36 1.37 1.36 1.23 1.29 1.38 1.52 1.46 1.36 1.25 1.10 1.12 1.18 1.16 1.04 1.15 1.21 1.36 1.54 1.52 1.52 1.51 1.53 1.53 1.58 1.62 1.64 1.64 1.67 1.70 1.72 1.73 1.72 1.71 1.75 1.79 1.80
1.36 1.34 1.33 1.31 1.31 1.28 1.27 1.23 1.22 1.23 1.27 1.28 1.30 1.42 1.50 1.51 1.55 1.59 1.66 1.63 1.63 1.62 1.57 1.56 1.58 1.55 1.55 1.55 1.55 1.60 1.60 1.61 1.70 1.71 1.69 1.65 1.63 1.59 1.53 1.53 1.49 1.48 1.44 1.36 1.29 1.34 1.40 1.43 1.40 1.34 1.31 1.28 1.26 1.35 1.42 1.50 1.43 1.46 1.28 1.15 1.09 1.05 1.04 1.17 1.27 1.30 1.49 1.48 1.54 1.57 1.61 1.63 1.62 1.61 1.63 1.67 1.70 1.69 1.69 1.67 1.69 1.71 1.72 1.79 1.79
1.34 1.36 1.36 1.34 1.34 1.31 1.28 1.23 1.22 1.24 1.24 1.26 1.34 1.46 1.45 1.47 1.46 1.43 1.39 1.44 1.44 1.45 1.40 1.39 1.42 1.44 1.44 1.56 1.57 1.57 1.58 1.57 1.61 1.64 1.66 1.65 1.59 1.56 1.53 1.50 1.45 1.44 1.43 1.37 1.33 1.36 1.35 1.41 1.40 1.42 1.38 1.42 1.37 1.30 1.33 1.49 1.50 1.47 1.47 1.42 1.31 1.12 1.10 1.28 1.24 1.10 1.40 1.55 1.58 1.60 1.62 1.66 1.67 1.66 1.67 1.66 1.64 1.64 1.67 1.63 1.66 1.69 1.72 1.77 1.78
1.34 1.39 1.38 1.36 1.36 1.34 1.29 1.25 1.20 1.23 1.26 1.28 1.39 1.46 1.43 1.49 1.53 1.49 1.47 1.47 1.42 1.45 1.54 1.54 1.45 1.46 1.54 1.54 1.54 1.55 1.56 1.56 1.56 1.63 1.65 1.65 1.63 1.61 1.56 1.52 1.51 1.45 1.48 1.44 1.40 1.40 1.39 1.43 1.46 1.45 1.44 1.48 1.42 1.30 1.35 1.43 1.50 1.51 1.53 1.52 1.52 1.53 1.48 1.32 1.22 1.30 1.14 1.34 1.48 1.54 1.59 1.66 1.67 1.66 1.63 1.65 1.67 1.65 1.64 1.62 1.66 1.74 1.74 1.75 1.77
1.37 1.39 1.36 1.36 1.36 1.34 1.29 1.23 1.22 1.24 1.28 1.35 1.39 1.44 1.41 1.44 1.51 1.54 1.51 1.51 1.48 1.47 1.55 1.57 1.58 1.56 1.53 1.51 1.51 1.53 1.56 1.61 1.63 1.63 1.65 1.62 1.63 1.64 1.61 1.56 1.53 1.49 1.48 1.44 1.44 1.49 1.49 1.52 1.56 1.52 1.51 1.47 1.43 1.34 1.35 1.45 1.36 1.41 1.55 1.51 1.53 1.58 1.56 1.50 1.47 1.34 1.24 1.14 1.27 1.50 1.59 1.61 1.62 1.64 1.65 1.66 1.72 1.68 1.62 1.66 1.69 1.71 1.74 1.74 1.75
1.39 1.36 1.34 1.34 1.38 1.38 1.32 1.27 1.22 1.23 1.26 1.35 1.38 1.41 1.43 1.44 1.48 1.55 1.49 1.54 1.55 1.55 1.61 1.64 1.59 1.61 1.53 1.51 1.48 1.51 1.60 1.64 1.65 1.64 1.64 1.62 1.59 1.61 1.58 1.59 1.55 1.52 1.52 1.52 1.51 1.52 1.52 1.53 1.55 1.52 1.45 1.44 1.41 1.42 1.35 1.39 1.43 1.40 1.46 1.48 1.49 1.47 1.48 1.46 1.46 1.47 1.33 1.24 1.25 1.30 1.37 1.55 1.57 1.63 1.65 1.74 1.74 1.70 1.66 1.68 1.71 1.71 1.73 1.71 1.72
1.41 1.40 1.38 1.37 1.39 1.41 1.34 1.30 1.22 1.21 1.24 1.31 1.35 1.39 1.42 1.45 1.46 1.48 1.45 1.46 1.53 1.55 1.59 1.57 1.59 1.62 1.53 1.51 1.49 1.52 1.58 1.63 1.64 1.66 1.65 1.62 1.57 1.57 1.55 1.58 1.57 1.58 1.58 1.55 1.55 1.53 1.57 1.58 1.57 1.56 1.50 1.42 1.48 1.45 1.40 1.43 1.43 1.43 1.45 1.47 1.39 1.41 1.41 1.44 1.45 1.46 1.47 1.43 1.25 1.29 1.41 1.38 1.34 1.49 1.68 1.67 1.69 1.67 1.64 1.66 1.69 1.72 1.70 1.69 1.73
1.45 1.41 1.38 1.36 1.38 1.40 1.36 1.30 1.25 1.21 1.21 1.27 1.31 1.35 1.42 1.42 1.44 1.46 1.43 1.44 1.47 1.51 1.51 1.53 1.57 1.57 1.51 1.54 1.55 1.54 1.61 1.64 1.65 1.63 1.63 1.61 1.57 1.55 1.54 1.56 1.62 1.64 1.62 1.55 1.54 1.55 1.57 1.55 1.59 1.53 1.47 1.48 1.46 1.41 1.39 1.44 1.47 1.44 1.46 1.46 1.42 1.42 1.40 1.36 1.40 1.45 1.42 1.35 1.33 1.34 1.42 1.47 1.41 1.38 1.56 1.64 1.64 1.62 1.64 1.68 1.65 1.65 1.68 1.72 1.79
Wind_Speed
11 11 10 11 11 11 11 11 11 11 10 10 10 9 9 9 9 9 9 9 9 9 9 9 8 9 9 10 9 9 9 9 8 8 8 8 9 9 10 10 10 10 10 10 10 10 10 10 10 10 11 11 11 11 11 11 11 12 12 12 12 12 12 12 13 13 14 14 14 14 14 13 13 13 12 12 12 12 11 11 10 10 9 10 9
11 11 11 11 11 11 11 11 11 11 10 10 10 9 9 9 9 9 9 9 9 9 9 9 9 9 10 10 9 9 9 9 8 9 9 9 9 9 10 10 11 11 10 10 10 10 10 10 10 11 11 11 11 11 11 11 11 12 12 12 12 12 12 12 12 13 13 13 14 14 13 13 13 12 12 12 11 11 11 10 10 10 10 10 10
12 11 11 11 11 11 11 11 11 10 10 10 9 9 9 9 9 10 10 10 9 9 10 10 10 10 10 10 9 9 9 9 9 9 9 9 9 9 10 10 11 11 10 10 10 10 10 10 11 11 11 11 11 11 11 11 11 11 12 12 12 12 12 12 12 12 12 12 13 13 12 12 12 12 11 11 11 11 10 10 10 10 10 10 10
12 11 11 11 11 11 11 11 11 10 10 10 9 9 9 9 10 10 10 10 10 10 10 10 10 10 10 10 9 9 9 9 9 9 9 9 9 9 10 10 10 10 10 10 10 10 10 10 11 11 11 11 11 11 11 11 12 12 12 12 12 12 11 12 12 12 12 12 12 12 12 12 12 11 11 11 11 10 10 10 10 10 10 10 10
12 12 11 11 11 11 11 11 11 10 10 10 9 9 9 10 10 10 10 10 10 10 10 10 10 10 10 10 9 9 9 9 10 9 9 9 9 9 9 10 10 10 10 10 10 10 10 10 10 11 11 11 11 11 11 11 12 12 12 12 11 11 11 11 11 11 12 12 12 12 11 11 11 11 11 11 10 10 10 10 11 11 10 10 9
12 11 12 11 11 11 11 11 10 10 10 10 9 9 10 10 10 9 9 9 10 10 9 10 10 10 10 10 10 9 10 10 10 10 10 9 9 9 9 10 10 10 10 10 10 10 10 10 10 11 11 11 11 11 11 11 11 11 11 11 11 11 11 10 11 11 11 11 11 11 11 11 11 11 10 10 10 10 10 11 11 11 10 10 9
11 11 11 11 11 11 11 11 10 10 10 10 10 10 10 10 10 9 10 9 9 9 9 10 10 10 10 10 10 10 10 10 10 10 10 10 9 9 9 9 9 10 10 10 10 9 10 10 10 10 11 11 11 11 11 11 11 11 11 11 11 11 11 11 11 11 11 11 10 10 10 10 10 10 10 10 11 11 11 11 11 10 10 10 9
11 10 11 11 11 11 11 10 10 10 10 10 10 10 10 10 10 9 9 9 9 9 9 9 10 10 10 10 10 10 10 10 10 10 10 9 9 9 9 9 9 9 9 9 9 9 10 10 10 10 11 11 11 11 11 11 11 11 11 11 11 11 11 11 11 11 11 11 11 10 10 10 10 10 11 11 11 11 11 11 10 10 10 9 8
11 10 11 11 10 11 10 10 10 10 10 10 9 9 10 9 9 9 9 9 9 9 9 9 10 10 10 10 10 10 10 10 9 9 9 9 9 9 9 9 9 9 9 9 9 9 10 10 10 10 11 11 11 11 11 11 11 11 11 12 12 12 12 11 11 11 11 11 11 11 11 11 11 11 11 12 12 11 11 10 10 9 9 8 7
11 10 11 11 10 10 10 10 10 10 9 9 9 9 9 9 9 9 9 8 8 9 9 9 9 10 10 11 10 10 10 9 9 9 9 9 9 9 9 8 8 8 8 9 9 9 10 10 10 10 10 11 11 11 11 11 11 11 12 12 12 12 11 11 11 11 11 12 12 11 11 11 11 11 12 12 11 11 10 10 9 8 8 7 7
10 10 10 10 10 10 10 10 9 9 9 9 9 9 9 8 8 8 8 8 8 8 9 9 9 10 10 11 10 10 9 9 9 9 9 9 8 8 8 8 8 8 8 8 8 9 9 10 9 10 10 11 11 11 11 12 12 12 12 12 12 11 11 11 11 12 12 12 12 12 11 11 11 11 12 11 11 10 10 9 9 8 7 7 7
10 10 9 9 9 9 9 9 9 9 8 8 8 8 8 8 8 8 8 8 8 8 8 9 9 10 10 10 10 9 9 9 9 9 9 9 8 8 8 8 8 8 8 8 8 9 9 10 10 10 10 11 11 11 12 12 12 12 12 12 11 11 10 11 12 13 12 12 12 11 11 11 11 11 11 11 11 10 10 9 8 8 7 7 7
9 9 9 9 9 9 9 9 9 8 8 8 8 8 8 8 8 8 8 8 8 8 8 9 9 10 10 10 10 9 9 9 9 9 9 8 8 8 8 8 8 9 9 9 9 10 10 10 10 10 11 11 12 12 12 13 12 12 12 12 11 11 10 11 13 13 12 12 12 11 11 11 11 11 11 10 10 9 9 8 8 7 7 6 6
9 8 8 8 8 8 8 8 8 8 8 8 8 8 8 8 8 8 8 8 8 8 9 9 9 10 10 10 10 10 9 9 9 9 9 9 9 9 9 9 9 10 10 10 10 10 10 11 11 11 11 12 12 12 12 12 12 12 12 12 11 11 11 12 12 12 12 11 11 11 11 11 11 11 10 9 9 8 8 7 7 6 6 6 5
8 8 8 7 8 8 8 8 8 8 8 8 8 8 8 8 8 8 8 8 8 9 9 9 10 10 10 10 10 10 9 9 9 9 9 9 9 9 9 10 10 10 10 10 11 11 11 11 11 12 12 13 13 12 12 12 12 12 12 12 11 11 11 12 11 11 11 11 10 10 10 10 10 10 9 9 8 7 7 7 6 6 5 5 5
7 7 7 7 7 7 7 8 8 8 8 8 8 8 8 8 8 8 8 9 9 9 10 10 10 10 10 10 10 10 10 10 10 10 10 10 10 10 10 10 10 10 11 11 11 11 11 12 12 13 13 13 12 12 12 12 12 12 12 11 11 11 11 11 11 10 11 11 10 10 10 10 9 9 9 8 8 7 7 6 6 6 5 5 5
7 7 6 6 7 7 7 7 8 8 8 8 8 8 8 8 9 9 9 9 9 10 10 10 11 11 11 11 11 11 11 11 11 11 10 10 10 10 10 10 10 11 11 11 11 12 12 13 13 13 13 12 12 12 12 12 12 11 11 11 11 11 10 11 11 10 11 11 10 10 9 9 9 9 8 8 8 7 7 6 6 5 5 5 5
6 6 6 6 7 7 7 7 7 8 8 8 8 8 8 9 9 9 9 10 10 10 11 11 11 11 11 11 11 11 12 12 11 11 11 11 11 11 11 11 11 11 12 12 12 13 13 14 13 13 13 13 12 12 12 12 11 11 11 11 11 11 10 10 11 10 11 10 10 9 9 9 9 9 8 8 8 7 7 6 6 6 5 5 5
6 6 5 6 6 7 7 7 7 8 8 8 8 8 8 9 9 10 10 10 10 11 11 11 11 12 12 12 12 12 12 12 12 11 11 11 11 11 11 11 12 12 12 13 13 14 14 14 14 13 13 13 13 13 12 12 12 11 11 11 11 10 10 10 11 11 11 10 10 9 9 9 9 8 8 8 8 7 7 7 6 6 5 5 5
5 5 5 6 6 7 7 7 7 8 8 8 8 8 9 10 10 11 11 11 11 11 12 12 12 12 13 12 12 12 12 12 12 12 12 11 11 11 11 12 13 13 13 14 14 14 14 14 14 13 13 13 13 12 12 12 12 11 11 10 10 10 9 10 11 11 10 9 9 9 9 8 8 8 8 8 8 8 7 7 6 6 6 5 5
5 5 5 6 6 7 7 7 7 8 8 8 8 9 10 10 11 11 11 12 12 12 12 12 13 13 13 13 13 12 12 12 12 12 12 12 11 11 12 13 13 14 14 15 15 14 14 14 13 13 13 12 12 12 12 11 11 10 10 10 9 9 9 10 10 10 9 9 8 8 8 8 8 8 8 8 8 8 7 7 6 6 6 6 6
5 5 5 6 6 7 7 7 8 8 8 9 9 10 11 11 11 12 12 12 12 13 13 13 13 13 13 13 13 12 12 12 12 12 12 12 12 12 13 14 14 15 15 15 14 14 13 13 12 12 12 12 12 12 11 11 10 10 9 9 9 9 9 9 10 10 8 8 8 8 8 8 8 8 8 8 7 7 7 7 7 7 6 6 6
6 6 6 6 6 7 7 8 8 9 9 9 10 10 11 12 12 12 12 13 13 13 13 13 13 13 13 13 13 13 13 13 13 13 12 12 13 14 15 15 15 15 14 14 13 13 12 12 11 11 11 11 11 11 10 10 9 9 9 9 9 9 9 9 10 9 8 8 8 8 8 8 8 8 8 7 7 7 7 7 7 7 7 7 6
6 6 6 6 7 7 8 8 8 9 10 10 10 11 12 12 13 13 13 14 14 14 14 14 14 14 14 14 14 13 13 13 13 13 13 13 14 15 15 15 14 14 13 13 12 12 11 10 10 10 10 10 10 10 10 9 9 9 9 9 9 9 9 10 9 8 8 8 8 8 8 8 8 7 7 7 7 7 7 7 7 7 7 7 7
6 6 7 7 7 8 8 9 9 9 10 10 11 12 13 13 13 14 14 15 15 14 14 14 14 14 14 14 14 14 13 13 13 13 14 14 15 15 15 14 14 13 12 11 11 10 9 9 9 9 9 9 9 9 9 9 9 9 9 8 8 9 10 9 9 8 8 8 8 8 8 8 7 7 7 7 7 7 7 7 7 7 7 8 8
7 7 7 7 8 8 8 9 9 10 10 11 12 13 14 14 15 15 15 15 15 15 14 14 14 14 14 14 14 13 13 13 13 14 14 15 15 15 14 13 13 12 11 10 10 9 9 9 9 9 9 9 9 9 10 10 9 9 9 9 9 9 10 9 8 8 8 8 8 8 8 7 7 7 7 6 6 6 7 7 7 7 7 8 8
7 7 8 8 8 8 9 9 10 10 11 12 13 14 14 15 16 16 16 16 16 15 15 15 15 14 14 14 14 13 13 13 14 14 14 15 15 14 13 12 11 11 10 10 10 9 9 9 9 9 9 9 9 9 10 9 9 9 9 9 9 9 9 8 8 8 8 8 8 8 7 7 6 6 6 6 6 6 6 6 6 7 7 8 8
8 8 8 8 8 9 9 10 10 11 12 13 14 14 15 16 16 16 16 16 16 16 15 15 15 15 14 14 14 13 13 14 14 14 14 14 14 13 12 11 11 11 11 10 10 9 9 9 9 9 9 9 9 10 10 9 9 9 9 9 9 9 8 8 8 9 8 8 8 7 6 6 6 6 6 6 6 6 6 6 6 7 7 8 8
8 8 8 9 9 10 10 10 11 12 13 14 14 15 16 16 16 17 17 16 16 16 15 15 15 15 14 14 14 13 13 13 13 14 13 13 13 12 12 12 11 11 11 11 10 9 9 9 9 9 9 9 9 10 10 10 10 10 9 9 9 9 9 9 9 9 8 7 7 6 5 5 5 5 5 5 5 6 6 6 6 7 7 8 8
8 9 9 9 10 10 11 11 12 13 14 14 15 16 16 16 16 17 17 16 16 15 15 15 14 14 14 13 13 13 13 13 13 13 13 13 12 12 12 12 12 12 11 10 10 9 9 9 9 9 9 9 9 10 11 11 11 10 10 9 9 9 9 9 9 8 8 7 6 5 5 4 4 4 4 5 5 6 6 6 7 7 7 8 8
9 9 9 9 10 11 11 12 13 14 15 15 15 16 16 16 16 16 16 16 16 15 15 14 14 13 12 12 12 12 13 13 14 14 13 13 13 13 13 12 12 11 10 9 9 8 8 8 9 9 9 9 9 10 11 10 10 10 10 9 9 9 8 8 8 7 6 5 5 4 4 3 3 4 4 5 5 5 6 6 7 7 8 8 9
9 9 10 10 11 11 12 13 13 14 15 15 16 16 16 16 16 16 16 16 16 15 14 13 12 12 11 11 11 12 12 13 13 13 13 13 13 13 12 12 11 10 9 9 8 8 8 9 9 9 9 9 9 9 10 10 9 9 9 9 9 8 8 7 6 5 4 3 3 3 3 3 3 4 4 5 5 5 6 6 7 7 8 9 9
9 10 10 11 11 11 12 13 14 14 15 15 15 15 16 15 15 16 16 16 15 14 13 12 11 11 11 12 12 12 12 13 13 13 13 12 12 12 12 11 10 10 9 9 8 8 9 9 9 8 9 9 9 9 10 9 9 8 8 8 8 7 6 6 5 4 3 2 2 2 2 3 3 4 4 5 5 6 6 7 7 8 8 9 9
9 10 10 11 11 11 12 13 14 14 15 15 15 15 15 15 15 15 15 15 14 13 12 12 11 11 11 12 13 12 12 12 13 12 12 12 12 12 11 10 10 9 9 9 9 9 9 9 8 8 8 9 9 9 9 9 8 8 8 7 6 5 5 4 3 3 2 2 2 2 2 3 4 4 5 5 5 6 7 7 8 8 9 9 9
10 10 10 11 11 11 12 13 14 14 14 14 14 14 15 15 14 15 14 14 13 12 12 12 12 11 11 12 12 12 12 12 12 12 12 11 11 11 11 10 10 9 9 9 9 9 9 8 8 8 8 8 8 8 9 9 8 7 7 6 5 5 4 3 2 2 1 1 1 2 3 4 4 4 5 6 6 6 7 7 8 9 9 10 10
10 10 11 11 11 11 11 12 14 14 14 14 14 14 14 14 14 14 14 13 12 12 12 12 11 11 11 12 11 11 11 11 11 11 11 11 10 10 10 10 9 9 9 9 9 8 8 8 8 8 7 7 7 8 8 8 8 7 6 5 5 4 3 2 2 1 1 1 2 2 3 4 4 5 6 6 6 7 7 8 9 10 10 10 10
10 10 10 11 11 11 11 12 13 14 14 14 14 14 14 14 14 13 13 12 12 11 12 11 10 11 11 11 11 11 11 11 11 11 11 10 10 10 10 9 9 9 9 9 8 8 8 7 7 7 7 6 6 7 7 8 7 6 5 5 4 3 2 2 1 1 2 2 3 3 4 5 5 6 6 6 6 7 8 9 9 10 10 11 11
10 10 10 10 11 11 11 12 13 13 13 13 13 14 14 13 13 13 12 12 11 11 11 10 10 11 11 11 11 11 11 11 11 11 10 10 10 10 9 9 9 9 8 8 8 7 7 7 6 6 6 6 5 5 6 7 6 5 4 4 3 3 2 1 1 2 2 3 4 4 5 6 6 6 6 7 7 8 9 9 9 9 10 10 11
10 10 10 10 10 11 11 12 13 13 13 13 13 14 13 13 13 12 12 12 12 11 10 10 10 11 11 11 11 11 11 11 11 10 10 10 10 10 9 9 9 8 8 8 8 7 7 7 6 6 6 5 5 5 5 5 5 4 3 3 3 2 1 1 1 1 2 3 4 5 6 6 6 6 6 7 8 8 9 9 9 9 9 10 10
10 10 10 10 10 10 11 11 12 12 12 13 13 13 13 12 12 12 12 12 11 10 10 10 10 10 11 11 11 11 10 10 10 10 10 9 10 10 9 8 8 8 8 7 7 7 6 6 6 6 5 5 5 5 5 4 4 4 3 3 2 1 0 1 0 1 2 3 3 4 5 6 6 6 6 6 7 9 9 9 9 10 10 10 10
10 10 10 10 10 11 11 11 12 12 12 12 12 12 12 12 12 12 12 12 11 10 10 9 9 10 11 11 11 10 10 10 10 10 9 9 9 9 9 8 8 7 7 7 7 6 6 6 6 5 5 4 5 4 4 4 3 3 3 2 1 1 0 1 1 1 2 3 3 4 4 5 6 6 6 6 7 8 9 9 10 10 10 10 10
11 11 10 10 11 11 11 11 11 11 11 12 12 12 12 12 12 12 12 12 11 10 9 9 9 9 10 11 11 11 10 10 10 9 9 9 9 8 8 8 8 7 7 6 6 6 5 6 5 5 4 4 4 3 3 3 3 3 3 2 1 0 1 1 1 2 2 3 3 4 5 6 6 6 7 7 8 8 8 9 10 11 11 10 10
11 11 11 11 11 11 11 11 11 11 11 12 13 12 12 11 11 11 11 11 11 10 9 9 9 9 10 11 11 11 10 10 9 9 9 9 8 8 8 8 7 7 6 6 6 5 5 6 5 5 4 4 4 3 3 2 2 2 2 1 0 0 1 1 1 2 2 3 4 4 5 6 6 7 7 7 8 8 8 9 10 10 10 10 10
11 11 11 11 11 11 11 11 12 11 11 12 12 12 12 11 11 11 10 11 10 10 9 9 9 9 10 10 10 10 10 10 9 9 8 8 8 8 7 7 7 6 6 6 6 5 5 5 5 5 4 4 3 3 2 2 2 2 1 1 0 0 1 1 2 2 3 4 4 5 6 6 7 7 7 7 8 8 9 10 10 10 10 10 10
12 12 12 11 11 11 11 11 12 12 11 12 12 12 11 11 11 10 10 10 10 10 9 9 9 9 10 10 10 10 10 10 9 9 8 8 8 8 7 7 6 6 6 6 6 5 5 5 5 5 4 4 3 3 2 2 2 1 1 1 0 0 1 1 2 3 3 4 5 5 6 6 7 7 7 8 8 8 9 10 9 9 9 9 9
12 12 12 12 12 12 11 11 12 12 12 12 12 11 11 11 10 10 10 10 10 10 10 10 10 10 10 10 10 10 10 10 9 9 8 8 8 8 7 7 6 6 6 6 6 5 5 4 4 5 4 4 4 3 2 2 1 1 1 1 1 1 1 1 2 3 4 4 4 5 6 6 6 7 8 8 8 9 9 9 9 9 8 8 9
13 13 12 12 12 12 11 11 12 12 12 12 12 11 11 11 10 10 11 10 11 10 10 9 10 10 9 9 10 10 10 10 9 9 9 8 8 8 7 7 7 7 6 6 6 5 5 5 4 5 4 4 4 3 2 2 1 1 0 0 0 0 1 1 2 3 4 4 4 5 6 6 6 8 8 8 8 9 9 8 8 8 8 8 8
13 13 13 13 13 12 12 11 12 13 12 12 12 11 11 11 11 11 11 11 11 10 10 9 9 9 9 9 10 10 10 9 9 9 9 8 8 8 7 7 7 7 6 6 6 5 5 5 4 4 4 4 4 3 3 2 2 1 0 0 0 0 1 2 2 3 3 4 5 6 6 7 7 8 8 8 9 8 8 7 7 7 7 7 8
14 14 14 13 13 13 12 12 13 13 12 12 12 12 12 12 11 11 11 11 10 10 10 10 9 9 9 9 10 10 9 9 9 9 9 8 8 8 7 7 7 7 6 6 6 5 5 5 5 4 4 4 3 3 3 3 3 2 1 1 1 1 1 2 3 3 3 4 5 6 6 7 8 8 8 8 9 8 7 7 7 7 7 7 7
15 15 15 14 14 14 13 13 13 13 12 12 13 12 12 12 12 11 11 11 10 10 10 10 9 9 9 9 9 9 9 9 9 9 8 8 8 8 8 7 7 7 7 6 6 5 5 5 5 5 4 4 3 3 3 3 3 2 2 2 2 2 2 2 3 4 4 4 5 6 6 7 7 8 8 8 9 8 7 7 6 6 6 7 8
16 16 15 15 15 15 14 14 14 14 13 13 13 13 13 12 12 12 11 11 11 11 10 10 9 9 9 9 9 9 9 9 8 8 8 8 8 8 8 8 7 7 7 6 6 5 5 5 5 5 5 4 4 4 3 3 3 3 2 2 2 3 3 3 4 4 4 5 5 6 6 6 7 7 8 8 9 8 7 6 6 6 6 7 8
Wind_Direction
152 151 150 148 147 147 146 147 147 147 145 143 141 140 140 140 143 145 147 146 145 142 138 135 134 134 133 134 133 133 131 129 125 122 121 122 122 121 118 116 116 116 118 118 118 118 118 116 115 115 115 115 114 114 113 112 112 111 110 109 109 108 108 108 108 109 111 112 112 113 114 114 113 113 113 113 113 114 115 114 114 114 115 117 118
151 151 150 148 147 145 144 144 144 145 144 143 142 141 140 140 142 144 146 146 145 143 140 137 135 135 136 136 134 133 131 129 127 124 123 123 123 122 120 117 117 118 118 117 117 118 118 116 116 116 116 115 114 114 113 112 112 110 109 109 108 107 108 108 108 109 111 112 112 112 112 113 113 113 112 112 112 113 114 113 112 112 113 115 116
148 149 148 148 146 145 143 142 143 145 145 144 143 143 143 143 144 144 144 143 142 142 140 138 136 137 138 138 136 134 131 131 128 126 124 124 124 124 122 120 118 117 118 117 117 118 117 116 116 117 117 116 114 113 112 113 113 111 109 108 107 108 109 108 108 110 111 112 112 112 112 112 113 114 113 113 114 114 113 112 112 113 114 114 115
144 146 147 146 146 145 143 141 142 144 143 143 143 143 143 143 143 142 142 141 141 141 141 138 138 138 140 139 136 134 133 132 128 125 125 125 125 126 125 122 120 119 119 119 118 119 118 117 116 117 117 116 115 115 115 115 114 113 110 108 107 107 108 107 108 109 110 111 111 111 111 111 112 113 113 113 113 112 112 112 114 114 114 114 114
140 142 143 144 144 144 142 141 140 141 142 143 143 143 142 142 141 141 142 141 141 141 141 140 140 140 141 139 136 135 134 133 128 126 126 126 126 128 128 124 122 122 121 120 120 120 118 117 118 117 117 117 117 117 118 117 115 113 111 109 109 109 109 108 109 110 110 110 109 109 109 110 110 111 111 110 110 109 110 112 114 113 113 112 111
139 140 142 144 143 143 142 141 140 140 142 143 143 142 141 141 141 141 142 142 141 142 143 142 141 140 140 139 138 137 135 133 130 128 128 127 128 129 129 127 126 124 123 122 121 121 119 119 120 119 118 118 119 120 120 118 115 112 110 110 111 111 111 110 110 110 110 110 108 107 108 108 108 109 109 107 108 108 109 110 110 110 109 108 108
142 142 144 145 144 143 142 141 140 140 140 141 141 140 141 141 140 140 141 141 142 143 143 143 141 139 139 139 138 137 136 134 131 130 129 128 128 128 128 128 128 125 125 125 123 122 121 121 122 121 121 120 121 122 120 118 114 111 111 111 112 112 111 111 110 109 109 109 108 108 108 107 107 107 107 107 107 108 108 108 106 105 104 103 103
144 144 145 146 146 144 144 143 141 140 140 140 139 139 141 141 140 140 140 140 141 142 142 142 140 139 140 139 137 137 137 134 133 132 131 129 128 128 129 129 129 127 126 126 125 125 124 123 123 123 123 123 123 124 121 118 115 112 112 111 112 111 111 111 110 109 107 107 107 107 108 108 107 106 106 108 108 108 107 105 103 102 100 99 99
145 145 146 148 148 147 147 147 144 143 142 140 139 140 141 142 142 142 142 141 141 140 142 143 142 141 141 139 138 138 137 134 133 133 133 132 130 130 131 130 129 129 127 126 127 127 126 126 126 126 125 125 126 125 122 119 116 114 113 113 112 109 110 111 109 109 106 106 107 107 108 109 108 107 107 108 108 107 105 103 101 99 98 96 96
145 145 148 148 149 150 151 151 149 148 146 145 144 144 145 145 145 146 146 145 144 142 143 146 145 144 142 141 140 139 138 136 135 134 134 133 132 132 133 132 131 131 130 129 129 129 129 129 129 128 128 128 128 126 123 120 118 116 115 114 113 110 111 110 109 110 108 107 107 107 108 109 108 107 108 108 106 105 103 102 100 97 95 94 94
144 146 148 148 149 152 153 154 153 152 153 152 151 151 151 150 149 149 150 150 149 147 146 148 149 147 145 145 143 142 141 139 138 136 135 134 132 132 134 135 133 134 134 134 133 133 132 132 131 130 130 129 128 127 124 122 121 119 118 117 115 113 111 109 109 112 111 109 107 107 108 109 108 108 109 108 105 103 101 100 97 94 91 90 89
145 147 148 149 150 154 156 157 157 158 160 159 159 159 158 156 155 153 154 154 152 150 150 150 151 150 149 148 146 146 145 142 140 137 135 134 132 132 135 136 136 136 135 134 135 135 134 133 131 130 130 130 129 127 125 124 123 121 119 117 116 114 112 112 113 114 113 109 105 104 106 109 110 110 109 108 104 101 99 97 94 91 89 88 85
146 148 149 151 152 157 160 161 163 165 165 165 165 165 165 162 160 159 158 157 154 152 152 152 152 151 151 150 150 150 148 146 143 138 136 134 132 132 135 136 136 134 132 130 131 132 132 130 129 129 129 129 129 127 126 124 122 119 118 117 116 113 111 115 118 116 113 108 104 103 105 108 109 109 107 105 102 99 97 94 91 89 86 84 81
147 149 151 153 155 160 163 166 168 168 168 168 168 168 168 167 164 164 162 160 157 155 154 153 152 152 152 151 152 152 151 150 147 142 138 135 132 131 132 133 132 131 130 127 126 127 128 128 126 126 126 127 127 127 126 124 122 120 119 117 115 112 109 115 120 117 112 108 105 104 104 105 106 107 105 102 99 95 92 89 87 84 81 78 75
148 151 154 156 157 162 166 169 171 169 169 169 169 169 169 168 168 167 164 161 159 158 156 155 153 153 152 152 152 152 151 149 147 144 140 136 133 130 129 129 130 131 130 127 124 124 126 127 125 124 124 124 125 126 126 124 123 122 120 117 113 112 110 114 120 117 111 108 106 105 103 102 104 105 103 101 97 92 89 86 83 80 77 73 68
150 152 154 157 158 162 166 168 170 170 170 171 170 169 170 169 168 167 164 162 160 158 157 155 152 151 151 150 150 149 147 145 144 142 139 136 132 129 129 130 130 129 128 126 124 124 126 126 125 124 123 123 123 125 125 125 125 123 120 116 114 114 111 112 118 118 112 108 105 104 101 100 102 103 102 99 95 91 88 86 82 78 75 69 63
150 151 152 157 159 160 164 166 168 169 170 170 169 169 169 168 167 165 163 161 159 157 156 154 151 150 149 147 147 145 142 141 140 139 137 134 131 129 129 130 129 127 126 125 125 125 126 126 125 125 124 123 123 124 125 126 126 124 121 118 117 115 110 111 118 119 113 108 104 102 100 99 101 101 99 96 92 90 88 85 81 77 73 67 61
150 153 153 157 160 159 162 163 164 167 168 167 166 166 166 165 163 162 160 159 157 156 154 152 150 147 146 144 143 142 140 138 138 137 135 133 131 130 130 129 127 126 125 125 125 126 124 124 123 123 122 122 123 124 124 126 126 125 123 120 117 115 108 110 118 119 114 107 102 101 99 99 99 97 95 91 89 88 86 82 77 73 68 62 55
147 153 155 158 159 159 162 161 162 163 164 164 163 163 162 161 159 158 157 156 154 153 151 149 148 146 144 142 141 140 138 137 136 135 134 133 132 131 129 128 126 125 124 124 125 124 123 122 122 121 120 120 122 123 123 124 126 126 124 120 117 116 110 110 117 119 114 107 101 100 99 98 97 95 93 90 89 87 83 78 74 69 63 57 51
143 151 154 157 156 156 159 158 160 161 161 162 161 160 158 156 154 153 154 153 151 149 148 146 145 144 142 141 140 138 137 135 134 133 133 132 131 130 129 127 126 124 123 124 124 123 123 123 122 121 119 120 121 121 122 123 124 125 124 121 119 118 114 113 118 119 115 106 100 100 99 98 98 96 94 91 88 85 80 75 71 66 60 56 51
138 146 149 152 154 155 158 157 159 159 158 156 155 155 154 153 152 150 151 150 148 146 145 143 143 142 141 140 139 138 136 135 134 134 133 132 131 129 128 126 125 124 124 123 123 123 123 123 122 121 120 120 120 121 121 122 123 124 123 122 122 122 118 116 119 119 113 103 99 101 100 99 98 96 94 91 86 82 78 72 68 64 58 55 51
134 139 144 149 152 155 157 155 154 154 154 153 151 151 151 150 149 148 147 147 146 144 143 142 142 141 140 139 138 137 135 134 134 133 133 131 130 129 127 126 125 125 124 124 123 123 122 122 121 121 121 120 120 120 121 122 122 122 120 120 124 126 122 119 121 119 110 101 101 103 101 100 98 95 93 89 84 79 74 69 65 60 56 53 49
133 135 140 145 147 151 153 151 150 151 151 150 149 149 149 148 147 146 145 144 143 142 142 142 140 140 139 137 136 136 134 133 133 132 132 131 130 128 127 126 126 126 126 125 124 123 123 122 122 122 122 121 121 122 123 123 122 121 119 122 126 126 124 123 122 117 107 102 104 104 103 100 98 94 89 85 80 75 69 65 60 55 52 49 45
133 134 136 139 143 146 148 148 147 149 148 148 148 148 148 147 145 144 143 142 141 140 140 140 139 138 137 137 136 135 134 134 133 132 132 131 130 129 129 128 128 128 127 125 125 124 124 123 123 123 122 123 125 125 125 124 123 122 122 126 127 125 124 123 120 114 107 105 105 105 103 100 96 91 85 79 75 69 64 59 53 49 45 43 40
130 131 132 135 138 140 142 144 144 146 146 145 146 147 146 145 144 143 141 140 139 138 138 137 136 135 136 136 136 135 135 135 133 132 132 131 130 130 130 130 129 129 128 126 126 126 125 125 125 125 125 125 127 129 128 127 126 124 125 128 127 125 125 122 116 111 108 106 106 105 102 98 93 86 79 74 69 62 56 51 47 43 40 37 35
128 129 131 132 133 137 138 140 142 143 143 143 144 145 144 143 143 141 140 139 137 136 136 134 133 133 134 135 135 134 134 134 133 132 132 131 131 131 131 132 131 130 130 128 128 127 127 126 127 127 127 127 130 132 131 130 128 126 127 127 127 127 126 121 113 110 110 108 107 105 99 94 88 81 75 68 61 53 47 43 41 38 35 32 28
125 127 130 130 131 134 137 137 138 140 141 142 142 142 142 141 141 140 139 138 136 135 134 132 131 132 133 133 132 132 131 131 131 131 131 131 131 132 132 132 132 131 131 129 128 127 127 128 129 130 128 129 132 134 133 131 129 128 127 126 127 127 126 120 112 111 111 109 106 101 96 89 82 75 68 60 52 44 40 38 34 31 28 25 22
123 126 129 131 132 133 135 135 135 138 140 141 140 140 140 140 139 139 138 137 136 134 133 130 129 130 129 129 129 129 129 130 130 131 131 132 133 134 134 134 132 131 129 127 126 124 126 128 130 131 129 129 133 135 132 129 128 128 126 125 125 125 125 120 113 112 112 109 104 98 92 83 75 67 57 49 41 35 33 31 28 24 20 17 15
125 127 128 129 131 132 133 133 134 137 139 139 139 139 139 139 139 138 138 137 136 134 132 130 128 128 127 127 128 128 129 130 131 132 132 133 134 135 135 133 131 129 127 124 123 122 124 126 129 131 128 127 131 134 131 126 125 127 126 124 124 123 123 120 115 114 112 107 101 94 86 76 66 57 46 36 29 26 24 22 21 17 13 10 7
129 129 128 128 130 131 132 132 133 136 138 139 138 138 138 138 139 139 138 137 136 134 132 130 129 127 127 128 129 129 129 131 132 133 132 132 133 133 133 132 130 128 125 122 122 124 124 124 129 131 128 126 130 135 131 124 122 124 124 123 123 122 121 119 116 114 110 104 98 89 78 68 56 43 32 24 20 19 16 14 12 9 5 2 359
130 131 129 128 130 131 132 132 134 136 137 138 138 138 138 138 139 139 138 136 135 134 133 132 131 130 129 130 131 131 131 132 133 133 132 131 131 132 132 130 128 126 124 123 125 128 129 129 132 131 128 128 131 139 136 126 122 122 121 120 121 120 120 120 117 114 109 101 95 84 66 54 39 24 16 14 14 12 8 6 3 0 357 354 352
135 135 132 130 131 132 134 134 136 136 137 138 138 139 139 139 139 139 138 137 136 135 134 134 135 136 136 134 132 132 132 133 134 133 132 132 131 132 132 130 128 128 127 126 128 129 128 129 132 129 128 127 127 140 144 134 126 125 123 122 121 120 121 123 120 114 108 97 85 70 50 37 24 11 5 5 8 6 1 358 355 352 350 348 346
138 137 135 133 133 134 135 137 137 138 138 139 139 140 140 140 140 141 140 139 138 137 138 138 138 138 138 136 134 133 132 134 136 135 133 133 133 133 132 132 132 131 129 129 129 127 125 127 130 129 129 125 122 136 146 141 132 128 126 123 122 121 122 124 121 112 105 94 74 51 31 22 13 4 358 357 358 355 351 349 346 344 343 342 342
140 139 138 136 135 135 137 138 139 140 140 140 141 141 142 142 142 142 142 142 141 141 140 141 141 138 137 137 136 134 133 134 136 135 134 135 135 134 133 133 134 132 129 129 127 125 125 127 129 130 131 127 123 133 145 146 138 130 130 126 123 125 126 126 123 114 103 90 65 27 9 5 359 353 350 345 342 340 340 339 337 337 336 336 338
144 143 141 138 137 137 138 140 142 143 143 142 142 142 143 144 144 144 144 145 145 143 143 143 143 141 138 139 137 135 135 135 136 136 137 137 136 135 135 135 135 132 129 128 127 125 126 127 128 128 130 129 125 132 143 149 145 136 136 134 131 133 134 135 138 139 123 56 26 351 346 348 343 342 342 338 335 334 333 331 330 331 333 334 335
149 147 145 141 140 141 140 141 144 146 146 145 144 144 145 146 146 147 147 149 148 146 147 147 145 144 143 142 140 137 136 136 137 138 140 140 138 137 137 137 136 133 129 127 127 128 128 127 128 128 128 127 126 131 142 151 151 145 142 142 141 143 145 151 158 188 246 315 337 326 330 334 329 329 333 333 332 332 330 327 326 327 329 331 333
152 150 148 145 144 145 144 144 147 148 147 147 147 147 148 149 149 150 151 151 150 149 150 150 147 147 148 147 144 141 139 138 139 140 141 142 141 139 139 139 137 134 131 129 129 131 130 127 129 130 128 125 125 131 140 151 156 153 149 147 144 145 149 163 191 222 256 293 313 317 322 324 319 319 323 327 329 329 328 325 325 325 326 329 332
156 154 152 150 148 149 149 149 149 149 149 149 149 149 149 150 151 153 153 151 150 151 153 151 149 150 151 150 147 144 142 140 141 142 142 143 144 142 140 140 138 134 133 132 131 132 132 129 129 129 126 123 123 131 141 151 157 156 154 154 150 147 147 163 207 234 270 302 313 314 313 313 315 315 317 323 325 324 325 325 327 328 328 330 332
159 157 157 154 153 153 152 152 152 151 151 151 150 150 150 152 152 153 154 152 152 152 152 151 151 151 152 151 149 147 145 143 142 143 143 142 144 143 141 140 139 136 135 135 134 134 134 133 130 128 123 121 124 130 140 148 154 159 160 158 158 159 166 191 227 263 297 310 313 312 310 310 315 317 319 324 325 325 327 327 330 332 332 332 332
162 161 161 159 158 158 156 155 154 153 153 153 153 153 154 154 154 155 156 157 156 153 151 151 151 152 152 152 152 149 146 145 144 144 143 142 144 145 143 142 139 138 139 140 140 140 139 139 136 130 122 119 123 125 132 136 143 159 164 154 145 148 216 278 271 315 323 321 322 324 322 322 325 328 330 331 333 334 335 335 337 338 338 336 334
166 166 166 164 164 163 161 159 158 158 159 158 159 159 158 157 157 159 160 162 162 158 156 155 153 154 155 155 155 153 149 148 147 146 145 146 147 146 146 146 142 141 145 147 149 147 145 147 146 139 128 121 123 119 122 124 125 146 161 158 142 138 327 342 347 331 325 325 334 341 340 340 341 340 338 337 340 342 342 342 344 345 343 339 337
169 171 171 168 168 168 166 163 162 165 166 165 164 163 162 162 161 162 164 165 165 164 163 162 159 158 158 158 158 157 155 153 151 150 150 151 150 148 149 151 149 146 148 150 152 149 150 154 154 149 141 129 125 118 118 124 123 135 151 161 163 229 289 331 351 340 329 324 330 339 344 347 345 339 337 338 342 345 346 345 345 345 345 342 339
173 174 173 171 171 170 169 167 166 167 169 168 166 165 166 166 166 166 167 167 168 167 166 166 165 163 163 162 161 161 160 159 157 156 156 155 154 153 153 154 154 151 150 153 151 151 157 161 160 157 151 141 130 120 116 130 143 144 142 154 182 266 287 303 324 335 342 339 335 336 337 339 339 338 339 340 339 340 343 344 344 344 345 345 342
176 176 175 175 174 173 173 171 169 168 169 170 169 168 169 170 170 169 168 169 169 169 167 167 167 166 166 166 165 165 165 165 165 163 162 160 159 160 159 156 158 157 155 157 155 157 162 163 164 163 158 153 145 133 122 126 143 157 153 170 216 339 288 299 314 325 343 347 345 345 340 336 338 340 341 340 336 333 336 340 341 341 343 347 346
179 180 179 178 178 177 176 174 173 172 172 173 172 172 172 173 173 172 169 168 168 169 168 169 170 170 169 169 169 169 170 170 171 169 167 166 165 167 166 161 162 162 160 162 162 163 164 163 165 167 165 165 164 158 154 141 137 146 156 178 227 316 283 308 321 321 333 341 342 348 348 343 343 343 342 341 338 335 334 336 339 339 340 344 347
183 183 183 181 181 182 180 177 176 176 176 175 173 173 173 173 173 172 171 169 168 170 170 169 172 173 171 171 171 171 172 173 174 173 170 170 170 171 171 168 166 166 164 164 166 168 168 167 168 169 170 176 177 171 175 182 168 136 119 165 200 243 275 320 339 327 328 334 340 345 348 348 347 346 345 342 341 340 337 338 341 342 343 345 349
186 185 185 185 184 185 185 181 178 178 177 176 176 174 173 174 173 171 172 171 170 172 171 169 170 171 171 173 173 173 174 174 175 174 174 174 173 173 173 171 169 169 167 167 169 171 173 173 172 172 174 178 180 178 182 194 192 185 152 191 250 265 307 334 346 337 331 332 339 344 347 348 345 344 345 343 343 344 344 345 345 346 349 349 352
189 188 188 188 187 188 188 184 180 180 179 178 179 177 175 175 174 173 173 172 172 173 171 169 169 169 171 174 175 174 175 177 177 177 178 178 177 176 176 175 173 172 172 173 173 173 175 177 175 174 175 177 179 181 189 193 188 190 180 177 300 307 312 321 328 332 331 327 331 337 341 342 341 342 344 344 346 348 349 350 349 351 352 352 357
192 192 191 191 190 190 190 187 184 183 182 181 182 182 179 178 177 176 175 173 173 173 170 170 171 170 172 175 176 176 178 180 180 180 181 181 180 179 179 179 177 176 178 179 177 175 178 179 177 178 180 182 185 186 193 201 198 198 203 234 304 313 300 307 316 320 322 321 325 332 336 338 342 344 346 347 349 349 347 349 352 354 354 355 359
195 195 194 194 193 192 191 190 189 187 185 184 185 185 182 180 180 179 178 176 175 174 172 173 174 173 174 176 177 178 180 181 181 182 182 183 184 184 184 182 180 181 184 185 183 180 182 184 184 188 190 193 198 198 201 209 213 216 224 248 278 295 300 305 307 310 316 317 321 328 331 335 340 342 345 348 349 349 348 351 355 356 357 358 358
197 196 196 196 195 194 194 193 193 190 188 187 187 188 186 183 182 182 181 179 177 176 176 176 177 176 177 177 177 178 180 181 182 183 183 184 186 187 187 187 186 188 190 190 188 186 189 192 194 198 200 201 204 207 211 218 226 231 236 252 272 282 290 296 298 304 311 313 319 325 327 331 334 336 342 346 347 350 352 354 355 355 357 357 356